Location: Nitra
(48.3170°N, 18.0830°E)
Time: 16:04:57
(UTC+01:00)

ISS - Visible Passes

Search period start: 12 December 2018 00:00
Search period end: 22 December 2018 00:00
Orbit: 401 x 408 km, 51.6° (Epoch: 12 December)

Date Brightness Start Highest point End Pass type
(mag) Time Alt. Az. Time Alt. Az. Time Alt. Az.
12 Dec -1.7 17:23:19 10° W 17:26:09 28° SW 17:29:00 10° SSE visible
13 Dec -2.6 16:30:58 10° WNW 16:34:07 45° SSW 16:37:14 10° SE visible
14 Dec -0.6 17:16:09 10° WSW 17:18:00 14° SW 17:19:50 10° S visible
